Weather History for KBUF - September, 2011

Change the Weather History Date:

Thursday, September 15, 2011

  Actual Average Record
Temperature  
Mean Temperature 55 °F 63 °F  
Max Temperature 61 °F 72 °F 86 °F (1903)
Min Temperature 48 °F 54 °F 39 °F (1964)
Degree Days  
Heating Degree Days 10 4  
Month to date heating degree days 25 39  
Since 1 July heating degree days 27 66  
Cooling Degree Days 0 2  
Month to date cooling degree days 72 39  
Year to date cooling degree days 747 526  
Growing Degree Days 6 (Base 50)    
Moisture  
Dew Point 42 °F    
Average Humidity 66    
Maximum Humidity 96    
Minimum Humidity 36    
Precipitation  
Precipitation 0.25 in 0.13 in 1.57 in (1940)
Month to date precipitation 1.50 1.78  
Year to date precipitation 35.06 26.94  
Snow  
Snow 0.00 in 0.00 in 0.00 in ()
Month to date snowfall 0.0 0.0  
Since 1 July snowfall 0.0 0.0  
Since 1 September snowfall 0.0 0.0  
Snow Depth 0.00 in    
Sea Level Pressure  
Sea Level Pressure 30.11 in    
Wind  
Wind Speed 9 mph (NW)    
Max Wind Speed 22 mph    
Max Gust Speed 30 mph    
Visibility 9 miles    
Events Rain    
T = Trace of Precipitation, MM = Missing Value Source: NWS Daily Summary

Daily Weather History Graph

Daily Weather History Graph

Search for Another Location

Airport or City:

Trip Planner

Search our weather history database for the weather conditions in past years. The results will help you decide how hot, cold, wet, or windy it might be!

Date:

Astronomy

Sep. 15, 2011 Rise Set
Actual Time 6:54 AM EDT 7:25 PM EDT
Civil Twilight 6:25 AM EDT 7:53 PM EDT
Nautical Twilight 5:52 AM EDT 8:27 PM EDT
Astronomical Twilight 5:17 AM EDT 9:01 PM EDT
Moon 8:32 PM EDT (9/15) 10:07 AM EDT (9/15)
Length of Visible Light 13h 27m
Length of Day
12h 31m
Waning Gibbous, 91% of the Moon is Illuminated
Sep 15
Waning Gibbous
Sep 20
Last Quarter
Sep 27
New
Oct 3
First Quarter
Oct 11
Full

Hourly Weather History & Observations

Time (EDT) Temp. Dew Point Humidity Pressure Visibility Wind Dir Wind Speed Gust Speed Precip Events Conditions
12:54 AM 55.9 °F 52.0 °F 87% 30.01 in 10.0 mi North 12.7 mph - 0.03 in Rain Light Rain
1:54 AM 52.0 °F 50.0 °F 93% 30.02 in 8.0 mi North 10.4 mph - 0.07 in Rain Rain
2:09 AM 51.8 °F 48.2 °F 88% 30.02 in 8.0 mi North 11.5 mph - 0.02 in Rain Rain
2:54 AM 50.0 °F 46.9 °F 89% 30.02 in 10.0 mi North 11.5 mph - 0.06 in Rain Light Rain
3:54 AM 50.0 °F 46.4 °F 87% 30.03 in 7.0 mi North 4.6 mph - N/A Rain Light Rain
4:08 AM 50.0 °F 46.4 °F 87% 30.04 in 6.0 mi NNW 3.5 mph - N/A Rain Rain
4:22 AM 50.0 °F 46.4 °F 87% 30.04 in 5.0 mi Calm Calm - 0.04 in Rain Rain
4:54 AM 50.0 °F 46.9 °F 89% 30.04 in 10.0 mi Calm Calm - 0.06 in Rain Light Rain
5:54 AM 50.0 °F 46.0 °F 86% 30.04 in 10.0 mi Calm Calm - 0.02 in   Overcast
6:54 AM 50.0 °F 46.0 °F 86% 30.04 in 10.0 mi Calm Calm - 0.00 in   Light Drizzle
7:54 AM 51.1 °F 46.9 °F 86% 30.06 in 10.0 mi Variable 3.5 mph - 0.00 in Rain Light Rain
8:54 AM 51.1 °F 48.0 °F 89% 30.08 in 10.0 mi WSW 4.6 mph - 0.00 in   Mostly Cloudy
9:54 AM 53.6 °F 44.6 °F 72% 30.09 in 10.0 mi NNW 9.2 mph - N/A   Mostly Cloudy
10:54 AM 54.0 °F 43.0 °F 66% 30.10 in 10.0 mi NNW 9.2 mph - N/A   Mostly Cloudy
11:54 AM 57.9 °F 39.9 °F 51% 30.11 in 10.0 mi NNW 6.9 mph - N/A   Mostly Cloudy
12:54 PM 57.0 °F 37.9 °F 49% 30.12 in 10.0 mi NW 16.1 mph 21.9 mph N/A   Mostly Cloudy
1:54 PM 57.9 °F 34.0 °F 41% 30.13 in 10.0 mi NW 18.4 mph 24.2 mph N/A   Mostly Cloudy
2:54 PM 59.0 °F 34.0 °F 39% 30.13 in 10.0 mi NW 16.1 mph - N/A   Scattered Clouds
3:54 PM 61.0 °F 34.0 °F 36% 30.13 in 10.0 mi NW 16.1 mph 23.0 mph N/A   Scattered Clouds
4:54 PM 57.9 °F 35.1 °F 42% 30.15 in 10.0 mi NW 18.4 mph 26.5 mph N/A   Scattered Clouds
5:54 PM 57.0 °F 35.1 °F 44% 30.17 in 10.0 mi NNW 16.1 mph 23.0 mph N/A   Scattered Clouds
6:54 PM 55.0 °F 36.0 °F 49% 30.18 in 10.0 mi WNW 13.8 mph 21.9 mph N/A   Partly Cloudy
7:54 PM 54.0 °F 37.0 °F 53% 30.19 in 10.0 mi WNW 9.2 mph - N/A   Scattered Clouds
8:54 PM 54.0 °F 39.0 °F 57% 30.22 in 10.0 mi NNW 8.1 mph - N/A   Mostly Cloudy
9:54 PM 52.0 °F 39.9 °F 63% 30.24 in 10.0 mi NNW 8.1 mph - N/A   Mostly Cloudy
10:54 PM 50.0 °F 39.0 °F 66% 30.25 in 10.0 mi NW 5.8 mph - N/A   Scattered Clouds
11:54 PM 48.9 °F 39.0 °F 69% 30.27 in 10.0 mi West 4.6 mph - N/A   Partly Cloudy